Weather History for Stanton, MN

Change the Weather History Date:

Wednesday, April 24, 2013

  Actual Average (KLVN) Record (KLVN)
Temperature  
Mean Temperature 36 °F -  
Max Temperature 48 °F 63 °F 84 °F (1962)
Min Temperature 24 °F 38 °F 23 °F (1956)
Degree Days  
Heating Degree Days 30    
Moisture  
Dew Point 27 °F    
Average Humidity 73    
Maximum Humidity 90    
Minimum Humidity 47    
Precipitation  
Precipitation 0.01 in - - ()
Sea Level Pressure  
Sea Level Pressure 29.99 in    
Wind  
Wind Speed 7 mph (SW)    
Max Wind Speed 20 mph    
Max Gust Speed 33 mph    
Visibility 10 miles    
Events Rain    
Averages and records for this station are not official NWS values.
T = Trace of Precipitation, MM = Missing Value Source: NWS Daily Summary

Daily Weather History Graph

Daily Weather History Graph

Search for Another Location

Airport:

Trip Planner

Search our weather history database for the weather conditions in past years. The results will help you decide how hot, cold, wet, or windy it might be!

Date:

Astronomy

Apr. 24, 2013 Rise Set
Actual Time 6:12 AM CDT 8:08 PM CDT
Civil Twilight 5:41 AM CDT 8:39 PM CDT
Nautical Twilight 5:03 AM CDT 9:17 PM CDT
Astronomical Twilight 4:21 AM CDT 9:59 PM CDT
Moon 7:10 PM CDT (4/24) 5:19 AM CDT (4/24)
Length of Visible Light 14h 57m
Length of Day
13h 55m
Waxing Gibbous, 98% of the Moon is Illuminated
Apr 24
Waxing Gibbous
Apr 25
Full
May 2
Last Quarter
May 9
New
May 17
First Quarter

Hourly Weather History & Observations

Time (CDT) Temp. Windchill Dew Point Humidity Pressure Visibility Wind Dir Wind Speed Gust Speed Precip Events Conditions
12:13 AM 29.5 °F 23.4 °F 22.1 °F 74% 30.06 in 10.0 mi WNW 5.8 mph - N/A   Clear
12:33 AM 29.8 °F - 22.1 °F 73% 30.06 in 10.0 mi Calm Calm - N/A   Clear
12:53 AM 28.0 °F - 21.7 °F 77% 30.06 in 10.0 mi Calm Calm - N/A   Clear
1:13 AM 28.6 °F - 21.9 °F 76% 30.06 in 10.0 mi Calm Calm - N/A   Clear
1:33 AM 27.9 °F - 21.9 °F 78% 30.05 in 10.0 mi Calm Calm - N/A   Clear
1:53 AM 27.7 °F 23.8 °F 22.3 °F 80% 30.05 in 10.0 mi SSW 3.5 mph - N/A   Clear
2:13 AM 26.4 °F 20.9 °F 21.2 °F 81% 30.05 in 10.0 mi SSW 4.6 mph - N/A   Clear
2:33 AM 27.0 °F 21.6 °F 21.7 °F 81% 30.05 in 10.0 mi SSW 4.6 mph - N/A   Clear
2:53 AM 27.3 °F 20.9 °F 22.1 °F 81% 30.05 in 10.0 mi SSW 5.8 mph - N/A   Clear
3:13 AM 27.1 °F 21.8 °F 21.6 °F 80% 30.05 in 10.0 mi SSW 4.6 mph - N/A   Clear
3:33 AM 24.6 °F 20.3 °F 20.8 °F 86% 30.05 in 10.0 mi SSW 3.5 mph - N/A   Clear
3:53 AM 26.1 °F 20.5 °F 22.1 °F 85% 30.05 in 10.0 mi SSW 4.6 mph - N/A   Clear
4:13 AM 26.6 °F 22.6 °F 22.6 °F 85% 30.05 in 10.0 mi SSW 3.5 mph - N/A   Clear
4:33 AM 25.3 °F 21.1 °F 21.9 °F 87% 30.04 in 10.0 mi SSW 3.5 mph - N/A   Clear
5:13 AM 25.3 °F 21.1 °F 22.6 °F 89% 30.04 in 10.0 mi SSW 3.5 mph - N/A   Clear
5:33 AM 25.2 °F 20.9 °F 22.6 °F 90% 30.04 in 7.0 mi SSW 3.5 mph - N/A   Clear
5:53 AM 25.2 °F 18.3 °F 22.5 °F 89% 30.04 in 7.0 mi SSW 5.8 mph - N/A   Clear
6:13 AM 24.8 °F 20.5 °F 21.9 °F 89% 30.03 in 7.0 mi SSW 3.5 mph - N/A   Clear
6:33 AM 26.2 °F 20.7 °F 23.5 °F 90% 30.03 in 7.0 mi South 4.6 mph - N/A   Clear
6:53 AM 26.6 °F 20.0 °F 23.4 °F 88% 30.03 in 7.0 mi South 5.8 mph - N/A   Clear
7:13 AM 27.0 °F 21.6 °F 23.2 °F 86% 30.03 in 7.0 mi SSW 4.6 mph - N/A   Clear
7:33 AM 27.3 °F 20.9 °F 23.4 °F 85% 30.03 in 7.0 mi SSW 5.8 mph - N/A   Clear
7:53 AM 29.1 °F 23.0 °F 24.1 °F 81% 30.02 in 10.0 mi SSW 5.8 mph - N/A   Clear
8:13 AM 30.6 °F 23.1 °F 24.6 °F 79% 30.02 in 10.0 mi SSW 8.1 mph - N/A   Clear
8:33 AM 31.5 °F 24.2 °F 25.2 °F 78% 30.02 in 10.0 mi SSW 8.1 mph - N/A   Clear
8:53 AM 32.0 °F 26.4 °F 25.5 °F 77% 30.02 in 10.0 mi SSW 5.8 mph - N/A   Clear
9:13 AM 33.3 °F 24.6 °F 25.7 °F 74% 30.02 in 10.0 mi SW 11.5 mph - N/A   Clear
9:33 AM 34.3 °F 27.0 °F 26.2 °F 72% 30.01 in 10.0 mi SSW 9.2 mph - N/A   Clear
9:53 AM 35.4 °F 28.4 °F 26.6 °F 70% 30.01 in 10.0 mi SSW 9.2 mph - N/A   Clear
10:13 AM 36.5 °F 30.3 °F 27.0 °F 68% 30.01 in 10.0 mi SW 8.1 mph - N/A   Clear
10:33 AM 37.4 °F 30.8 °F 26.8 °F 66% 30.01 in 10.0 mi SW 9.2 mph - N/A   Clear
10:53 AM 37.9 °F 32.1 °F 27.7 °F 67% 30.01 in 10.0 mi SW 8.1 mph - N/A   Clear
11:13 AM 38.8 °F 32.1 °F 27.7 °F 64% 30.01 in 10.0 mi SSW 10.4 mph - N/A   Clear
11:33 AM 39.6 °F 33.5 °F 28.4 °F 64% 30.00 in 10.0 mi SW 9.2 mph - N/A   Clear
11:53 AM 40.1 °F 33.6 °F 28.8 °F 64% 30.00 in 10.0 mi SW 10.4 mph - N/A   Clear
12:13 PM 40.8 °F 33.7 °F 28.2 °F 61% 30.00 in 10.0 mi SW 12.7 mph - N/A   Clear
12:33 PM 41.9 °F 35.9 °F 28.9 °F 60% 29.99 in 10.0 mi SW 10.4 mph - N/A   Clear
12:53 PM 42.3 °F 36.3 °F 28.9 °F 59% 29.99 in 10.0 mi SW 10.4 mph - N/A   Clear
1:13 PM 42.8 °F 36.2 °F 29.1 °F 58% 29.98 in 10.0 mi SW 12.7 mph - N/A   Clear
1:33 PM 43.3 °F 36.8 °F 29.5 °F 58% 29.98 in 10.0 mi SW 12.7 mph 17.3 mph N/A   Clear
1:53 PM 44.1 °F 37.1 °F 30.4 °F 59% 29.97 in 10.0 mi SW 15.0 mph 19.6 mph N/A   Clear
2:13 PM 44.6 °F 37.8 °F 30.4 °F 57% 29.97 in 10.0 mi SW 15.0 mph 20.7 mph N/A   Clear
2:33 PM 45.5 °F 39.2 °F 30.2 °F 55% 29.97 in 10.0 mi SW 13.8 mph 21.9 mph N/A   Clear
2:53 PM 45.7 °F 38.0 °F 29.5 °F 53% 29.96 in 10.0 mi SW 19.6 mph 23.0 mph N/A   Clear
3:13 PM 45.7 °F 38.3 °F 27.3 °F 49% 29.96 in 10.0 mi SW 18.4 mph 23.0 mph N/A   Clear
3:33 PM 46.4 °F 39.2 °F 29.7 °F 52% 29.95 in 10.0 mi SW 18.4 mph - N/A   Clear
3:54 PM 47.1 °F - 30.2 °F 52% 29.94 in 10.0 mi WSW 17.3 mph 24.2 mph N/A   Clear
4:13 PM 46.9 °F - 29.5 °F 51% 29.94 in 10.0 mi WSW 15.0 mph 23.0 mph N/A   Clear
4:33 PM 47.7 °F - 29.1 °F 49% 29.93 in 10.0 mi WSW 13.8 mph 19.6 mph N/A   Scattered Clouds
4:52 PM 47.7 °F - 28.2 °F 47% 29.93 in 10.0 mi SW 13.8 mph - N/A   Clear
5:13 PM 47.7 °F - 28.4 °F 47% 29.92 in 10.0 mi WSW 16.1 mph 19.6 mph N/A   Scattered Clouds
5:33 PM 46.6 °F - 29.7 °F 52% 29.91 in 10.0 mi SW 12.7 mph 18.4 mph N/A   Mostly Cloudy
5:53 PM 46.6 °F - 30.4 °F 53% 29.90 in 10.0 mi SW 12.7 mph - N/A   Overcast
6:13 PM 45.5 °F 39.9 °F 30.0 °F 55% 29.90 in 10.0 mi SW 11.5 mph - N/A   Mostly Cloudy
6:33 PM 41.2 °F 32.4 °F 33.1 °F 73% 29.92 in 7.0 mi West 18.4 mph 33.4 mph N/A Rain Light Rain
6:53 PM 38.7 °F 30.5 °F 32.7 °F 79% 29.92 in 5.0 mi West 13.8 mph - 0.01 in Rain Rain
7:13 PM 38.7 °F 35.2 °F 33.3 °F 81% 29.92 in 7.0 mi SW 4.6 mph - N/A Rain Light Rain
7:33 PM 39.2 °F 34.2 °F 34.0 °F 82% 29.91 in 10.0 mi West 6.9 mph - N/A   Light Drizzle
7:53 PM 39.4 °F 34.5 °F 34.2 °F 82% 29.92 in 10.0 mi West 6.9 mph - N/A   Overcast
8:13 PM 38.5 °F 31.6 °F 33.8 °F 83% 29.93 in 10.0 mi WNW 10.4 mph - N/A   Overcast
8:33 PM 37.9 °F 31.5 °F 33.8 °F 85% 29.94 in 10.0 mi WNW 9.2 mph - N/A   Overcast
8:53 PM 37.6 °F 30.5 °F 33.4 °F 85% 29.95 in 10.0 mi WNW 10.4 mph - N/A   Overcast
9:53 PM 36.5 °F 31.8 °F 32.5 °F 86% 29.97 in 10.0 mi West 5.8 mph - N/A   Scattered Clouds
10:13 PM 36.1 °F 32.3 °F 32.2 °F 86% 29.97 in 10.0 mi WSW 4.6 mph - N/A   Clear
10:33 PM 36.1 °F 31.4 °F 32.4 °F 86% 29.98 in 10.0 mi WSW 5.8 mph - N/A   Mostly Cloudy
10:53 PM 36.3 °F 31.6 °F 32.5 °F 86% 29.98 in 10.0 mi SW 5.8 mph - N/A   Overcast
11:13 PM 36.0 °F 29.6 °F 32.7 °F 88% 29.98 in 10.0 mi SW 8.1 mph - N/A   Overcast
11:33 PM 36.5 °F 29.7 °F 32.9 °F 87% 29.98 in 10.0 mi WSW 9.2 mph - N/A   Mostly Cloudy
11:53 PM 36.5 °F 28.2 °F 32.7 °F 86% 29.98 in 10.0 mi West 12.7 mph - N/A   Mostly Cloudy